• In Latvia
  • List of Countries
  • For 7 days
  • Water Temperature
  • Satellite Maps
  • Weather Map
  • Weather Widgets
  • user-avatar
    Login

    Hourly Weather Vasilkovka

    Today, 19 November, Sunday

    Time Temperature Precipitation Wind Pressure Humidity
    00:00 +4°C° 0.1 mm 2 mps 752 mmHg 76%
    01:00 +4°C° 0.1 mm 2 mps 751 mmHg 76%
    02:00 +3°C° 0 mm 2 mps 750 mmHg 72%
    03:00 +3°C° 0.4 mm 2 mps 750 mmHg 75%
    04:00 +3°C° 0.4 mm 2 mps 750 mmHg 77%
    05:00 +3°C° 0.4 mm 2 mps 749 mmHg 80%
    06:00 +3°C° 0.1 mm 2 mps 749 mmHg 81%
    07:00 +4°C° 0.1 mm 2 mps 749 mmHg 82%
    08:00 +4°C° 0.1 mm 2 mps 748 mmHg 83%
    09:00 +5°C° 0 mm 2 mps 748 mmHg 80%
    10:00 +6°C° 0 mm 2 mps 748 mmHg 78%
    11:00 +7°C° 0 mm 3 mps 748 mmHg 75%
    12:00 +8°C° 0 mm 2 mps 748 mmHg 74%
    13:00 +8°C° 0 mm 2 mps 747 mmHg 73%
    14:00 +9°C° 0 mm 2 mps 747 mmHg 72%
    15:00 +8°C° 0.1 mm 2 mps 747 mmHg 76%
    16:00 +9°C° 0.1 mm 1 mps 747 mmHg 80%
    17:00 +8°C° 0.1 mm 1 mps 747 mmHg 85%
    18:00 +7°C° 0.7 mm 0 mps 747 mmHg 87%
    19:00 +7°C° 0.7 mm 0 mps 747 mmHg 89%
    20:00 +6°C° 0.7 mm 0 mps 747 mmHg 92%
    21:00 +7°C° 0.4 mm 1 mps 747 mmHg 92%
    22:00 +7°C° 0.4 mm 1 mps 747 mmHg 93%
    23:00 +7°C° 0.4 mm 1 mps 747 mmHg 94%

    Tomorrow, 20 November, Monday

    Time Temperature Precipitation Wind Pressure Humidity
    00:00 +6°C° 0.2 mm 2 mps 747 mmHg 93%
    01:00 +6°C° 0.2 mm 2 mps 747 mmHg 93%
    02:00 +6°C° 0.2 mm 2 mps 747 mmHg 93%
    03:00 +4°C° 0.3 mm 3 mps 747 mmHg 92%
    04:00 +4°C° 0.3 mm 3 mps 747 mmHg 92%
    05:00 +4°C° 0.3 mm 3 mps 746 mmHg 92%
    06:00 +4°C° 0.2 mm 3 mps 746 mmHg 91%
    07:00 +4°C° 0.2 mm 3 mps 746 mmHg 91%
    08:00 +4°C° 0.2 mm 4 mps 746 mmHg 90%
    09:00 +5°C° 0.7 mm 4 mps 745 mmHg 89%
    10:00 +5°C° 0.7 mm 4 mps 745 mmHg 88%
    11:00 +5°C° 0.7 mm 4 mps 745 mmHg 87%
    12:00 +5°C° 1.7 mm 5 mps 744 mmHg 87%
    13:00 +5°C° 1.7 mm 5 mps 744 mmHg 87%
    14:00 +3°C° 1.7 mm 5 mps 744 mmHg 87%
    15:00 +3°C° 1.7 mm 5 mps 743 mmHg 88%
    16:00 +3°C° 1.7 mm 5 mps 743 mmHg 88%
    17:00 +3°C° 1.7 mm 5 mps 743 mmHg 88%
    18:00 +2°C° 0.6 mm 6 mps 743 mmHg 88%
    19:00 +2°C° 0.6 mm 6 mps 743 mmHg 87%
    20:00 +2°C° 0.6 mm 6 mps 742 mmHg 86%
    21:00 +2°C° 0.7 mm 6 mps 743 mmHg 86%
    22:00 +2°C° 0.7 mm 6 mps 743 mmHg 85%
    23:00 +1°C° 0.7 mm 6 mps 743 mmHg 85%

    Day after tomorrow, 21 November, Tuesday

    Time Temperature Precipitation Wind Pressure Humidity
    00:00 +1°C° 0 mm 6 mps 743 mmHg 85%
    01:00 +1°C° 0 mm 6 mps 744 mmHg 85%
    02:00 +1°C° 0 mm 6 mps 744 mmHg 85%
    03:00 -1°C° 0 mm 6 mps 744 mmHg 85%
    04:00 0°C° 0 mm 5 mps 744 mmHg 85%
    05:00 0°C° 0 mm 5 mps 745 mmHg 85%
    06:00 0°C° 0 mm 5 mps 745 mmHg 83%
    07:00 -1°C° 0 mm 4 mps 745 mmHg 82%
    08:00 -1°C° 0 mm 4 mps 746 mmHg 81%
    09:00 0°C° 0 mm 4 mps 746 mmHg 77%
    10:00 +1°C° 0 mm 4 mps 746 mmHg 73%
    11:00 +1°C° 0 mm 4 mps 746 mmHg 69%
    12:00 +3°C° 0 mm 4 mps 746 mmHg 68%
    13:00 +3°C° 0 mm 4 mps 746 mmHg 68%
    14:00 +3°C° 0 mm 4 mps 746 mmHg 67%
    15:00 +3°C° 0 mm 4 mps 747 mmHg 69%
    16:00 +1°C° 0 mm 4 mps 747 mmHg 71%
    17:00 +1°C° 0 mm 4 mps 747 mmHg 73%
    18:00 0°C° 0 mm 4 mps 748 mmHg 71%
    19:00 0°C° 0 mm 4 mps 748 mmHg 70%
    20:00 +1°C° 0 mm 3 mps 748 mmHg 69%
    21:00 +1°C° 0 mm 3 mps 748 mmHg 70%
    22:00 0°C° 0 mm 3 mps 749 mmHg 71%
    23:00 +1°C° 0 mm 2 mps 749 mmHg 72%

    22 November, Wednesday

    Time Temperature Precipitation Wind Pressure Humidity
    00:00 -1°C° 0 mm 2 mps 749 mmHg 74%
    01:00 -1°C° 0 mm 2 mps 749 mmHg 75%
    02:00 -1°C° 0 mm 2 mps 749 mmHg 77%
    03:00 +1°C° 0 mm 1 mps 749 mmHg 77%
    04:00 +1°C° 0 mm 1 mps 750 mmHg 77%
    05:00 0°C° 0 mm 1 mps 750 mmHg 77%
    06:00 +1°C° 0 mm 1 mps 750 mmHg 76%
    07:00 +1°C° 0 mm 1 mps 750 mmHg 75%
    08:00 +1°C° 0 mm 1 mps 751 mmHg 73%
    09:00 +2°C° 0 mm 1 mps 751 mmHg 69%
    10:00 +3°C° 0 mm 1 mps 751 mmHg 64%
    11:00 +4°C° 0 mm 1 mps 752 mmHg 59%
    12:00 +4°C° 0 mm 1 mps 752 mmHg 58%
    13:00 +3°C° 0 mm 2 mps 752 mmHg 57%
    14:00 +3°C° 0 mm 2 mps 752 mmHg 56%
    15:00 +2°C° 0 mm 2 mps 752 mmHg 62%
    16:00 +1°C° 0 mm 2 mps 753 mmHg 67%
    17:00 -1°C° 0 mm 2 mps 753 mmHg 73%
    18:00 -1°C° 0 mm 2 mps 754 mmHg 75%
    19:00 -1°C° 0 mm 2 mps 754 mmHg 78%
    20:00 +1°C° 0 mm 1 mps 754 mmHg 80%
    21:00 0°C° 0 mm 1 mps 755 mmHg 82%
    22:00 0°C° 0 mm 1 mps 755 mmHg 83%
    23:00 0°C° 0 mm 1 mps 755 mmHg 84%

    23 November, Thursday

    Time Temperature Precipitation Wind Pressure Humidity
    00:00 0°C° 0 mm 1 mps 756 mmHg 84%
    01:00 -1°C° 0 mm 0 mps 756 mmHg 84%
    02:00 -1°C° 0 mm 0 mps 756 mmHg 85%
    03:00 -1°C° 0 mm 0 mps 757 mmHg 85%
    04:00 -1°C° 0 mm 0 mps 757 mmHg 85%
    05:00 -1°C° 0 mm 0 mps 757 mmHg 85%
    06:00 0°C° 0 mm 1 mps 758 mmHg 84%
    07:00 0°C° 0 mm 1 mps 758 mmHg 82%
    08:00 0°C° 0 mm 1 mps 759 mmHg 81%
    09:00 +1°C° 0 mm 1 mps 759 mmHg 75%
    10:00 +2°C° 0 mm 2 mps 759 mmHg 68%
    11:00 +3°C° 0 mm 2 mps 759 mmHg 62%
    12:00 +3°C° 0 mm 2 mps 759 mmHg 60%
    13:00 +3°C° 0 mm 2 mps 759 mmHg 58%
    14:00 +4°C° 0 mm 2 mps 759 mmHg 57%
    15:00 +3°C° 0 mm 2 mps 760 mmHg 61%
    16:00 +1°C° 0 mm 2 mps 760 mmHg 66%
    17:00 -1°C° 0 mm 2 mps 760 mmHg 71%
    18:00 -1°C° 0 mm 2 mps 760 mmHg 72%
    19:00 -1°C° 0 mm 3 mps 760 mmHg 74%
    20:00 -1°C° 0 mm 3 mps 761 mmHg 76%
    21:00 -1°C° 0 mm 3 mps 761 mmHg 76%
    22:00 -1°C° 0 mm 3 mps 761 mmHg 76%
    23:00 -1°C° 0 mm 3 mps 761 mmHg 75%

    24 November, Friday

    Time Temperature Precipitation Wind Pressure Humidity
    00:00 -1°C° 0 mm 3 mps 761 mmHg 74%
    01:00 0°C° 0 mm 3 mps 761 mmHg 73%
    02:00 -1°C° 0 mm 4 mps 761 mmHg 72%
    03:00 -1°C° 0 mm 4 mps 761 mmHg 72%
    04:00 -1°C° 0 mm 4 mps 761 mmHg 72%
    05:00 -1°C° 0 mm 4 mps 761 mmHg 72%
    06:00 0°C° 0 mm 4 mps 761 mmHg 72%
    07:00 0°C° 0 mm 4 mps 761 mmHg 73%
    08:00 0°C° 0 mm 4 mps 761 mmHg 73%
    09:00 +1°C° 0 mm 5 mps 761 mmHg 73%
    10:00 +1°C° 0 mm 5 mps 761 mmHg 74%
    11:00 +2°C° 0 mm 5 mps 761 mmHg 74%
    12:00 +2°C° 0 mm 5 mps 761 mmHg 75%
    13:00 +3°C° 0 mm 5 mps 761 mmHg 75%
    14:00 +3°C° 0 mm 5 mps 760 mmHg 76%
    15:00 +3°C° 0 mm 5 mps 760 mmHg 79%
    16:00 +3°C° 0 mm 4 mps 760 mmHg 81%
    17:00 +3°C° 0 mm 4 mps 760 mmHg 84%
    18:00 +3°C° 0 mm 4 mps 760 mmHg 85%
    19:00 +3°C° 0 mm 4 mps 760 mmHg 87%
    20:00 +3°C° 0 mm 4 mps 761 mmHg 89%
    21:00 +4°C° 0 mm 4 mps 761 mmHg 89%
    22:00 +4°C° 0 mm 4 mps 761 mmHg 90%
    23:00 +4°C° 0 mm 4 mps 761 mmHg 91%
    Show more